Location: Newark
(46.4000°N, 10.8500°E)
Time: 04:54:28
(UTC+00:00)

ISS - Visible Passes

Search period start: 23 July 2019 00:00
Search period end: 02 August 2019 00:00
Orbit: 409 x 418 km, 51.6° (Epoch: 23 July)

Date Brightness Start Highest point End Pass type
(mag) Time Alt. Az. Time Alt. Az. Time Alt. Az.
23 Jul -2.2 20:11:04 10° W 20:14:13 37° NNW 20:17:22 10° ENE visible
23 Jul -2.2 21:48:18 10° WNW 21:51:25 35° N 21:53:11 20° ENE visible
23 Jul -1.4 23:25:01 10° WNW 23:25:59 18° WNW 23:25:59 18° WNW visible
24 Jul -2.0 20:58:54 10° WNW 21:01:58 32° N 21:05:01 10° ENE visible
24 Jul -2.6 22:35:41 10° WNW 22:38:03 41° NW 22:38:03 41° NW visible
25 Jul -2.0 20:09:27 10° WNW 20:12:30 32° N 20:15:33 10° ENE visible
25 Jul -3.0 21:46:22 10° WNW 21:49:38 49° NNE 21:50:10 43° NE visible
26 Jul -2.5 20:57:02 10° WNW 21:00:12 39° NNE 21:02:19 18° ENE visible
26 Jul -1.7 22:33:43 10° WNW 22:35:07 23° WNW 22:35:07 23° WNW visible
27 Jul -2.2 20:07:38 10° WNW 20:10:44 34° N 20:13:49 10° ENE visible
27 Jul -3.6 21:44:21 10° WNW 21:47:18 67° WNW 21:47:18 67° WNW visible
28 Jul -3.4 20:55:00 10° WNW 20:58:19 61° NNE 20:59:31 34° E visible
28 Jul -1.0 22:31:58 10° W 22:32:19 12° W 22:32:19 12° W visible
29 Jul -2.9 20:05:37 10° WNW 20:08:53 45° NNE 20:11:45 12° E visible
29 Jul -2.4 21:42:23 10° WNW 21:44:34 32° W 21:44:34 32° W visible
30 Jul -3.8 20:52:55 10° WNW 20:56:14 68° SSW 20:56:49 53° SSE visible
31 Jul -3.7 20:03:30 10° WNW 20:06:51 79° NNE 20:09:07 19° ESE visible
31 Jul -1.4 21:40:47 10° W 21:41:56 15° WSW 21:41:56 15° WSW visible
01 Aug -2.6 20:50:59 10° WNW 20:53:58 30° SW 20:54:15 29° SSW visible
